Regional Weather Roundup
Issued by NWS Albany, NY

Home | Current Version | Previous Version | Text Only | Print | Product List | Glossary On
Versions: 1 2 3 4 5 6 7 8 9 10 11 12 13 14 15 16 17 18 19 20 21 22 23 24 25 26 27 28 29 30 31 32 33 34 35 36 37 38 39 40 41 42 43 44 45 46 47 48 49 50
000
ASUS41 KALY 211810
RWRALY

NEW YORK STATE HOURLY WEATHER ROUNDUP
NATIONAL WEATHER SERVICE ALBANY NY
100 PM EST SUN DEC 21 2014

NOTE: "FAIR" INDICATES FEW OR NO CLOUDS BELOW 12,000 FEET WITH NO
SIGNIFICANT WEATHER AND/OR NO OBSTRUCTIONS TO VISIBILITY.

NYZ032-033-038>043-046>054-057>066-NYZ062>081-211900-
EAST


CITY           SKY/WX    TMP DP  RH WIND       PRES   REMARKS
ALBANY         FLURRIES  30  23  75 N5        30.32F WCI  25
GLENS FALLS    CLOUDY    27  22  81 E3        30.33F
POUGHKEEPSIE   CLOUDY    32  27  81 N5        30.30F WCI  27
NEWBURGH       CLOUDY    32  28  86 CALM      30.30F FOG
MONTGOMERY     CLOUDY    32  27  81 CALM      30.28F
WHITE PLAINS   LGT SNOW  32  29  88 NW9       30.26S VSB 1   WCI  24
ISLIP          CLOUDY    36  31  82 N9        30.25F WCI  29
NEW YORK CITY  PTSUNNY   34  27  75 NW8       30.29F WCI  27
CENTRAL PARK   CLOUDY    34  25  69 NW7       30.31F WCI  28
$$

NYZ005>009-017-018-044>046-055-056-211900-
CENTRAL


CITY           SKY/WX    TMP DP  RH WIND       PRES   REMARKS
FULTON         CLOUDY    31  24  75 S5        30.30F WCI  26
SYRACUSE       FLURRIES  30  25  81 CALM      30.31F
ROME           MOSUNNY   31  22  69 CALM      30.33F
ELMIRA         CLOUDY    32  22  66 NW7       30.28F WCI  26
BINGHAMTON     CLOUDY    27  20  75 NE3       30.24S
MONTICELLO     CLOUDY    28  25  86 NW7       30.25S WCI  21
$$

NYZ026>034-041>043-211900-
NORTH


CITY           SKY/WX    TMP DP  RH WIND       PRES   REMARKS
WATERTOWN      CLOUDY    33  23  66 NW3       30.31F
FORT DRUM      NOT AVBL
MASSENA        CLOUDY    20  16  84 NE6       30.36F WCI  12
SARANAC LAKE   CLOUDY    22  18  85 W5        30.22F WCI  16
PLATTSBURGH    CLOUDY    23  19  85 NE3       30.35R
$$

NYZ001>004-010>016-019>021-211900-
WEST


CITY           SKY/WX    TMP DP  RH WIND       PRES   REMARKS
NIAGARA FALLS  MOSUNNY   33  21  61 W3        30.28F
BUFFALO        PTSUNNY   33  22  63 W7        30.28F WCI  27
DUNKIRK        CLOUDY    32  23  69 W6        30.30F WCI  26
JAMESTOWN      CLOUDY    27  21  80 W3        30.23F
WELLSVILLE     CLOUDY    26  22  84 CALM      30.22F
ROCHESTER      PTSUNNY   35  23  61 W7        30.29F WCI  29
PENN YAN       CLOUDY    33  21  61 NW7       30.28F WCI  27
$$

             KEY
       WCI = WIND CHILL INDEX
       VSB = VISIBILITY
       HX  = HEAT INDEX
$$



USA.gov is the U.S. government's official web portal to all federal, state and local government web resources and services.